TimeMDT,TemperatureF,Dew PointF,Humidity,Sea Level PressureIn,VisibilityMPH,Wind Direction,Wind SpeedMPH,Gust SpeedMPH,PrecipitationIn,Events,Conditions,WindDirDegrees,DateUTC
12:53 AM,64.0,53.1,67,30.03,10.0,SE,13.8,-,N/A,,Clear,130,2013-07-30 06:53:00
1:53 AM,64.0,53.1,67,30.05,10.0,ESE,15.0,-,N/A,,Clear,110,2013-07-30 07:53:00
2:53 AM,62.1,54.0,75,30.06,10.0,ESE,12.7,-,N/A,,Clear,110,2013-07-30 08:53:00
3:53 AM,62.1,53.1,72,30.06,10.0,East,12.7,-,N/A,,Clear,100,2013-07-30 09:53:00
4:53 AM,61.0,53.1,75,30.07,10.0,ESE,12.7,-,N/A,,Clear,120,2013-07-30 10:53:00
5:53 AM,59.0,53.1,81,30.10,10.0,ESE,6.9,-,N/A,,Clear,120,2013-07-30 11:53:00
6:53 AM,60.1,53.1,78,30.11,10.0,SE,8.1,-,N/A,,Clear,130,2013-07-30 12:53:00
7:53 AM,63.0,53.1,70,30.14,10.0,ESE,11.5,-,N/A,,Clear,120,2013-07-30 13:53:00
8:53 AM,69.1,52.0,54,30.14,10.0,ESE,11.5,-,N/A,,Clear,120,2013-07-30 14:53:00
9:53 AM,71.1,53.1,53,30.15,10.0,SSE,6.9,-,N/A,,Clear,150,2013-07-30 15:53:00
10:53 AM,73.9,52.0,46,30.15,10.0,Variable,3.5,-,N/A,,Clear,0,2013-07-30 16:53:00
11:53 AM,77.0,48.9,37,30.14,10.0,Calm,Calm,-,N/A,,Clear,0,2013-07-30 17:53:00
12:53 PM,81.0,48.0,31,30.10,10.0,Calm,Calm,-,N/A,,Partly Cloudy,0,2013-07-30 18:53:00
1:53 PM,82.9,48.9,31,30.08,10.0,NNW,3.5,-,N/A,,Clear,330,2013-07-30 19:53:00
2:53 PM,86.0,48.0,27,30.06,10.0,Variable,5.8,-,N/A,,Clear,0,2013-07-30 20:53:00
3:53 PM,88.0,46.0,23,30.04,10.0,Variable,4.6,-,N/A,,Clear,0,2013-07-30 21:53:00
4:53 PM,88.0,42.1,20,30.02,10.0,West,5.8,-,N/A,,Clear,270,2013-07-30 22:53:00
5:53 PM,88.0,39.0,18,30.01,10.0,North,3.5,-,N/A,,Clear,360,2013-07-30 23:53:00
6:53 PM,88.0,37.9,17,30.00,10.0,WNW,5.8,-,N/A,,Clear,300,2013-07-31 00:53:00
7:53 PM,86.0,37.9,18,30.00,10.0,Calm,Calm,-,N/A,,Clear,0,2013-07-31 01:53:00
8:53 PM,78.1,48.0,35,30.01,10.0,Calm,Calm,-,N/A,,Clear,0,2013-07-31 02:53:00
9:53 PM,73.9,46.9,38,30.03,10.0,Variable,4.6,-,N/A,,Clear,0,2013-07-31 03:53:00
10:53 PM,73.0,46.9,39,30.04,10.0,ESE,8.1,-,N/A,,Clear,110,2013-07-31 04:53:00
11:53 PM,73.0,44.1,35,30.04,10.0,East,9.2,-,N/A,,Clear,100,2013-07-31 05:53:00